Location: Navarre
(52.9016°N, 113.4144°W)
Time: 06:34:14
(UTC+00:00)

Envisat - Pass Details

Date: 06 December 2021
Orbit: 764 x 766 km, 98.2° (Epoch: 17 January)

Event Time Altitude Azimuth Distance (km) Brightness Sun altitude
Rises 10:57:23 0° 29° (NNE) 3,246 6.8 -39.8°
Reaches altitude 10° 11:01:24 10° 61° (ENE) 2,312 6.1 -39.2°
Maximum altitude 11:03:16 12° 83° (E) 2,177 6.0 -38.9°
Drops below altitude 10° 11:05:08 10° 105° (ESE) 2,305 6.0 -38.7°
Sets 11:09:06 0° 136° (SE) 3,223 6.6 -38.1°
